EW1742 Weather Reports


time (UTC)temp
C
wind
direction
speed
KPH
gust
KPH
rain 1hr
cm
rain 24hr
cm
rain mn
cm
humidity
%
barometer
mb
20260510213054 17 298 0.0 0.0 0.03 0.94 0.03 85 1018.8
20260510211550 17 298 0.0 0.0 0.00 0.91 0.00 85 1018.5
20260510210047 17 298 0.0 0.0 0.00 1.30 0.00 81 1018.7
20260510204548 19 298 0.0 1.6 0.00 1.30 0.00 77 1018.6
20260510203046 20 257 0.0 1.6 0.00 1.30 0.00 76 1017.8
20260510201545 20 257 0.0 1.6 0.00 1.30 0.00 73 1017.7
20260510200043 20 257 0.0 1.6 0.00 1.57 0.00 73 1017.9
20260510194544 20 264 0.0 1.6 0.00 1.57 0.00 73 1018.1
20260510193048 21 240 0.0 1.6 0.00 1.57 0.00 72 1018.0
20260510191543 21 214 0.0 1.6 0.00 1.57 0.00 71 1018.0
20260510190048 21 213 0.0 1.6 0.00 1.80 0.00 72 1018.1
20260510184556 22 212 0.0 1.6 0.00 1.80 0.00 69 1018.2
20260510183037 22 198 0.0 1.6 0.00 1.80 0.00 70 1018.2
20260510181552 22 203 0.0 4.8 0.00 1.80 0.00 68 1018.5
20260510180045 22 151 0.0 1.6 0.00 1.80 0.00 70 1018.5
20260510174530 22 155 0.0 1.6 0.00 1.80 0.00 70 1018.3
20260510173028 21 229 0.0 1.6 0.00 1.80 0.00 74 1018.4
20260510171525 20 226 0.0 1.6 0.00 1.80 0.00 80 1018.5
20260510170020 19 221 0.0 1.6 0.00 1.80 0.00 94 1018.5
20260510164519 18 221 0.0 4.8 0.00 1.80 0.00 93 1018.7
20260510163018 18 199 0.0 1.6 0.00 1.80 0.00 93 1018.8
20260510161518 18 178 0.0 3.2 0.00 1.80 0.00 95 1018.9
20260510160015 18 219 0.0 1.6 0.00 1.80 0.00 96 1019.0
20260510154514 18 217 0.0 3.2 0.00 1.80 0.00 96 1019.1
20260510153023 17 213 0.0 1.6 0.00 1.80 0.00 97 1019.3
20260510151505 16 212 0.0 1.6 0.00 1.80 0.00 98 1019.4
20260510150002 15 212 0.0 1.6 0.00 1.80 0.00 98 1019.4
20260510144615 15 212 0.0 1.6 0.00 1.80 0.00 98 1019.2
20260510144503 15 212 0.0 1.6 0.00 1.80 0.00 98 1019.2
20260510143101 14 212 0.0 1.6 0.00 1.80 0.00 98 1019.2
20260510141555 13 212 0.0 0.0 0.00 1.80 0.00 99 1019.3
20260510140053 13 212 0.0 1.6 0.00 1.80 0.00 98 1019.1
20260510134553 13 212 0.0 0.0 0.00 1.80 0.00 98 1019.0
20260510133052 13 212 0.0 0.0 0.00 1.80 0.00 98 1019.3
20260510131550 13 212 0.0 0.0 0.00 1.80 0.00 99 1019.2
20260510130049 12 214 0.0 0.0 0.00 1.80 0.00 99 1019.3
20260510124548 12 214 0.0 0.0 0.00 1.80 0.00 99 1019.3
20260510123043 12 215 0.0 1.6 0.00 1.80 0.00 99 1019.1
20260510121539 11 216 0.0 1.6 0.00 1.80 0.00 99 1018.8
20260510120039 11 216 0.0 0.0 0.00 1.80 0.00 99 1018.7
20260510114537 11 216 0.0 0.0 0.00 1.80 0.00 99 1018.5
20260510113035 11 216 0.0 1.6 0.00 1.80 0.00 99 1018.7
20260510111535 11 216 0.0 0.0 0.00 1.80 0.00 99 1018.5
20260510110033 11 216 0.0 0.0 0.00 1.80 0.00 99 1018.4
20260510104534 10 216 0.0 1.6 0.00 1.80 0.00 99 1018.1
20260510103029 10 216 0.0 1.6 0.00 1.80 0.00 99 1018.0
20260510101527 10 216 0.0 0.0 0.00 1.80 0.00 99 1018.0
20260510100027 10 216 0.0 0.0 0.00 1.80 0.00 99 1018.4
20260510094531 10 216 0.0 0.0 0.00 1.80 0.00 99 1018.3
20260510093025 10 216 0.0 1.6 0.00 1.80 0.00 99 1018.3
20260510091527 11 216 0.0 0.0 0.00 1.80 0.00 99 1018.3
20260510090023 11 216 0.0 0.0 0.00 1.85 0.00 99 1018.6
20260510084541 11 216 0.0 0.0 0.00 1.85 0.00 99 1018.3
20260510083018 11 216 0.0 0.0 0.00 1.85 0.00 99 1018.3
20260510081529 11 216 0.0 0.0 0.00 1.85 0.00 99 1018.1
20260510080022 11 216 0.0 0.0 0.00 1.85 0.00 99 1017.9
20260510074516 11 216 0.0 0.0 0.00 1.85 0.00 99 1017.9
20260510073016 11 216 0.0 0.0 0.00 1.85 0.00 99 1017.9
20260510071514 11 216 0.0 0.0 0.00 1.85 0.00 99 1017.9
20260510070014 11 216 0.0 0.0 0.00 1.85 0.00 99 1018.0
20260510064513 11 216 0.0 0.0 0.00 1.85 0.00 99 1018.0
20260510063013 11 216 0.0 0.0 0.00 1.85 0.00 99 1017.8
20260510061512 11 216 0.0 0.0 0.00 1.85 0.00 99 1017.4
20260510060009 11 216 0.0 0.0 0.00 1.85 0.00 99 1017.5
20260510054509 11 216 0.0 0.0 0.00 1.85 0.00 99 1017.8
20260510053009 11 216 0.0 0.0 0.00 1.85 0.00 99 1017.8
20260510051508 11 216 0.0 0.0 0.00 1.85 0.00 99 1017.7
20260510050007 11 216 0.0 0.0 0.00 1.85 0.00 99 1017.8
20260510044505 11 216 0.0 0.0 0.00 1.85 0.00 99 1017.8
20260510043005 11 216 0.0 0.0 0.00 1.85 0.00 99 1017.7
20260510041502 11 216 0.0 0.0 0.00 1.85 0.00 99 1017.6
20260510040001 11 216 0.0 0.0 0.00 1.85 1.85 99 1017.5
20260510034602 11 216 0.0 0.0 0.00 1.85 1.85 99 1017.7
20260510033108 11 216 0.0 1.6 0.00 1.85 1.85 99 1017.7
20260510031606 11 216 0.0 1.6 0.00 1.85 1.85 99 1017.6
20260510030103 11 216 0.0 0.0 0.00 1.85 1.85 99 1017.5
20260510024558 11 216 0.0 0.0 0.00 1.85 1.85 98 1017.5
20260510023058 11 216 0.0 0.0 0.00 1.85 1.85 98 1017.6
20260510021557 11 216 0.0 0.0 0.00 1.85 1.85 98 1017.5
20260510020056 11 216 0.0 0.0 0.00 1.85 1.85 98 1017.7
20260510014600 11 216 0.0 0.0 0.00 1.85 1.85 98 1017.6
20260510013110 11 216 0.0 0.0 0.00 1.85 1.85 98 1017.6
20260510011555 11 216 0.0 1.6 0.00 1.85 1.85 98 1017.4
20260510010056 11 216 0.0 1.6 0.00 1.85 1.85 98 1017.5
20260510004555 11 216 0.0 1.6 0.00 1.85 1.85 98 1017.2
20260510003055 11 216 0.0 0.0 0.05 1.85 1.85 98 1017.2
20260510001554 11 216 0.0 1.6 0.13 1.85 1.85 98 1017.0
20260510000052 12 216 0.0 1.6 0.15 1.85 1.85 98 1016.8
20260509234552 12 216 0.0 1.6 0.20 1.85 1.85 98 1016.7
20260509233058 12 216 0.0 1.6 0.25 1.80 1.80 98 1017.1
20260509231557 11 216 0.0 0.0 0.28 1.73 1.73 98 1017.5
20260509230050 11 216 0.0 0.0 0.36 1.70 1.70 98 1017.6
20260509224549 11 218 0.0 1.6 0.53 1.63 1.63 98 1017.7
20260509223050 11 219 0.0 0.0 0.58 1.55 1.55 98 1017.9
20260509221548 11 219 0.0 0.0 0.51 1.42 1.42 98 1018.1
20260509220053 11 220 0.0 0.0 0.41 1.35 1.35 98 1017.9
20260509214546 11 221 0.0 0.0 0.18 1.09 1.09 97 1017.9